STARLINK-35755, 67163

Orbit data source: Space-Track

STARLINK-35755, 67163 is a payload satellite owned by SpaceX/Seattle (US) in LEO that was launched on Wed, 17 Dec 2025 UTC via an FALCON 9 launch vehicle from the Air Force Eastern Test Range (AFETR). Payload-class satellites include a variety of spacecraft equipped with specific instruments for various scientific and technological missions. These include communications satellites like Starlink; space stations such as the ISS; scientific satellites like the Hubble; Earth observation satellites from companies like Planet Labs, Umbra, and HawkEye 360; GPS; miniature CubeSats for education and research; and military/defense satellites.

Loading next visibility...
Identifier
67163, 2025-303A
Orbit
LEO
Country
Flag of USUS
Related business
Manufacturer
SpaceX/Seattle
Mission
Operational Commercial Communications
Bus & Motor
STARLINK V2MO, Unknown motor
Mass
575 kg wet, ~530 kg dry
Launch date (UTC)
2025-12-17 (6 months ago)
Launch vehicle
FALCON 9
Launch site
Air Force Eastern Test Range (AFETR)
Object type
Payload
Rocket body
Debris
Shape & HBR
Box + 2 Pan, 17.7 m
Radar Cross Section
36.964 m², Large (>1 m²)

Expand to show TLE details & history
Last TLE update: 18 hours ago

TLE from 18 hours ago
0 STARLINK-35755
1 67163U 25303A   26171.13909534  .00018392  00000-0  67541-3 0  9996
2 67163  43.0005  92.1229 0001160 259.1246 100.9475 15.27618102 28402
Epoch: 2026-06-20T03:20Z
TLE epoch observation values (Epoch: 2026-06-20T03:20:17.837Z)
Latitude
-0.00002°
Longitude
133.69054°
Altitude
482.862 km
Speed
7.626 km/s
True Right ascension
06h 08m 29s
True Declination
0° 00' 00"
Sunlit
Object was in daylight at epoch
Visualization orbit readout
Latitude
Unknown
Longitude
Unknown
Altitude
Unknown
Speed
Unknown
Apparent Right ascension
Unknown
Apparent Declination
Unknown
Sunlit
N/A
Visualization observer readout
Local Sidereal Time
08:33:37
Azimuth
Unknown
Elevation
Unknown
Doppler factor
Unknown
Orbital elements
Apogee altitude
485.676 km
Perigee altitude
484.084 km
Semi-major axis
6,863.017 km
Eccentricity
0.00012
Inclination
43.0005°
RAAN
92.1229°
Arg. of periapsis
259.1246°
True anomaly
100.96055°
Mean anomaly
100.9475°
Eccentric anomaly
100.95403°
Mean motion
3.81743 °/min
Orbital period
94.3 mins
BSTAR
0.00067541
Loading maneuver chart data...
Computing Atmospheric mass density...
Loading historical data...
Loading historical data...
Loading historical data...
Loading historical data...
Loading historical data...
Loading historical data...
Loading historical data...

Documentation

Showing up to 5 results
|